| time (UTC) | temp F | wind direction | speed knots | gust knots | rain 1hr in | rain 24hr in | rain mn in | humidity % | barometer mb |
| 20260903060031 | 53 | 202 | 0.0 | 0.0 | 0.00 | 0.34 | 0.34 | 94 | 1012.3 |
| 20260903054531 | 54 | 202 | 0.0 | 0.0 | 0.00 | 0.34 | 0.34 | 95 | 1012.5 |
| 20260903053029 | 54 | 202 | 0.0 | 0.9 | 0.00 | 0.34 | 0.34 | 94 | 1012.6 |
| 20260903051532 | 54 | 73 | 0.0 | 1.7 | 0.00 | 0.34 | 0.34 | 94 | 1012.4 |
| 20260903050030 | 54 | 67 | 0.0 | 0.0 | 0.01 | 0.34 | 0.34 | 94 | 1012.1 |
| 20260903044530 | 54 | 67 | 0.0 | 0.0 | 0.03 | 0.34 | 0.34 | 93 | 1012.2 |
| 20260903043030 | 54 | 67 | 0.0 | 0.0 | 0.06 | 0.34 | 0.34 | 93 | 1012.2 |
| 20260903041531 | 54 | 67 | 0.0 | 0.0 | 0.16 | 0.34 | 0.33 | 92 | 1011.9 |
| 20260903034530 | 54 | 23 | 0.0 | 2.6 | 0.28 | 0.31 | 0.28 | 89 | 1011.6 |
| 20260903033031 | 55 | 9 | 0.0 | 3.5 | 0.26 | 0.28 | 0.18 | 86 | 1011.5 |
| 20260903031531 | 58 | 356 | 1.7 | 6.1 | 0.16 | 0.18 | 0.02 | 82 | 1011.4 |
| 20260903024530 | 60 | 328 | 0.0 | 2.6 | 0.00 | 0.02 | 0.02 | 75 | 1010.3 |
| 20260903023029 | 60 | 292 | 0.9 | 2.6 | 0.00 | 0.02 | 0.02 | 75 | 1010.2 |
| 20260903020033 | 0 | 0 | 0.0 | 0.0 | 0.00 | 0.02 | 0.00 | 100 | |
| 20260903014531 | 0 | 0 | 0.0 | 0.0 | 0.00 | 0.02 | 0.00 | 100 | |
| 20260903011533 | 61 | 260 | 0.9 | 3.5 | 0.00 | 0.02 | 0.02 | 72 | 1010.3 |
| 20260903010147 | 62 | 283 | 1.7 | 4.3 | 0.00 | 0.02 | 0.02 | 68 | 1010.4 |
| 20260903004532 | 62 | 285 | 1.7 | 3.5 | 0.00 | 0.02 | 0.02 | 68 | 1010.5 |
| 20260903003032 | 62 | 288 | 1.7 | 4.3 | 0.00 | 0.02 | 0.02 | 67 | 1010.4 |
| 20260903001529 | 62 | 295 | 1.7 | 5.2 | 0.00 | 0.02 | 0.02 | 66 | 1010.5 |
| 20260903000031 | 62 | 305 | 2.6 | 7.0 | 0.00 | 0.02 | 0.02 | 65 | 1010.5 |
| 20260902234533 | 63 | 316 | 2.6 | 4.3 | 0.00 | 0.02 | 0.02 | 65 | 1010.6 |
| 20260902233039 | 63 | 308 | 1.7 | 3.5 | 0.00 | 0.02 | 0.02 | 65 | 1010.6 |
| 20260902231606 | 63 | 303 | 2.6 | 7.0 | 0.02 | 0.02 | 0.02 | 64 | 1010.6 |
| 20260902230038 | 62 | 281 | 1.7 | 4.3 | 0.02 | 0.02 | 0.02 | 67 | 1010.5 |
| 20260902224528 | 62 | 300 | 0.9 | 1.7 | 0.02 | 0.02 | 0.02 | 70 | 1010.5 |
| 20260902223031 | 61 | 229 | 0.0 | 0.0 | 0.02 | 0.02 | 0.00 | 74 | 1010.5 |
| 20260902221532 | 0 | 0 | 0.0 | 0.0 | 0.00 | 0.00 | 0.00 | 100 | |
| 20260902214533 | 0 | 0 | 0.0 | 0.0 | 0.00 | 0.00 | 0.00 | 100 | |
| 20260902213032 | 0 | 0 | 0.0 | 0.0 | 0.00 | 0.00 | 0.00 | 100 | |
| 20260902211604 | 0 | 0 | 0.0 | 0.0 | 0.00 | 0.00 | 0.00 | 100 | |
| 20260902210145 | 61 | 306 | 1.7 | 5.2 | 0.00 | 0.00 | 0.00 | 65 | 1011.0 |
| 20260902204532 | 62 | 314 | 1.7 | 4.3 | 0.00 | 0.00 | 0.00 | 65 | 1010.7 |
| 20260902203030 | 61 | 298 | 1.7 | 4.3 | 0.00 | 0.00 | 0.00 | 69 | 1010.7 |
| 20260902201606 | 60 | 297 | 2.6 | 5.2 | 0.00 | 0.00 | 0.00 | 68 | 1010.9 |
| 20260902200034 | 62 | 313 | 3.5 | 12.2 | 0.00 | 0.00 | 0.00 | 61 | 1010.9 |
| 20260902194530 | 62 | 320 | 4.3 | 11.3 | 0.00 | 0.00 | 0.00 | 61 | 1010.5 |
| 20260902193032 | 68 | 312 | 4.3 | 13.0 | 0.00 | 0.00 | 0.00 | 49 | 1010.0 |
| 20260902191606 | 0 | 0 | 0.0 | 0.0 | 0.00 | 0.00 | 0.00 | 100 | |
| 20260902190106 | 0 | 0 | 0.0 | 0.0 | 0.00 | 0.00 | 0.00 | 100 | |
| 20260902183032 | 0 | 0 | 0.0 | 0.0 | 0.00 | 0.00 | 0.00 | 100 | |
| 20260902180030 | 0 | 0 | 0.0 | 0.0 | 0.00 | 0.00 | 0.00 | 100 | |
| 20260902174530 | 73 | 80 | 0.0 | 0.9 | 0.00 | 0.00 | 0.00 | 46 | 1010.6 |
| 20260902173031 | 71 | 131 | 0.0 | 0.9 | 0.00 | 0.00 | 0.00 | 49 | 1010.7 |
| 20260902171529 | 67 | 206 | 0.0 | 0.0 | 0.00 | 0.00 | 0.00 | 54 | 1011.0 |
| 20260902170030 | 0 | 0 | 0.0 | 0.0 | 0.00 | 0.00 | 0.00 | 100 | |
| 20260902164529 | 0 | 0 | 0.0 | 0.0 | 0.00 | 0.00 | 0.00 | 100 | |
| 20260902163106 | 58 | 225 | 1.7 | 1.7 | 0.00 | 0.00 | 0.00 | 73 | 1012.0 |
| 20260902161531 | 0 | 0 | 0.0 | 0.0 | 0.00 | 0.00 | 0.00 | 100 | |
| 20260902160030 | 0 | 0 | 0.0 | 0.0 | 0.00 | 0.00 | 0.00 | 100 | |
| 20260902150035 | 52 | 227 | 0.9 | 3.5 | 0.00 | 0.00 | 0.00 | 84 | 1012.5 |
| 20260902144706 | 0 | 0 | 0.0 | 0.0 | 0.00 | 0.00 | 0.00 | 100 | |
| 20260902141606 | 48 | 230 | 0.9 | 2.6 | 0.00 | 0.00 | 0.00 | 88 | 1012.6 |
| 20260902140031 | 47 | 231 | 1.7 | 3.5 | 0.00 | 0.00 | 0.00 | 89 | 1012.6 |
| 20260902134604 | 47 | 227 | 2.6 | 3.5 | 0.00 | 0.00 | 0.00 | 88 | 1012.6 |
| 20260902133032 | 48 | 225 | 1.7 | 2.6 | 0.00 | 0.00 | 0.00 | 88 | 1012.7 |
| 20260902131532 | 48 | 221 | 1.7 | 2.6 | 0.00 | 0.00 | 0.00 | 88 | 1012.8 |
| 20260902124529 | 49 | 223 | 0.9 | 2.6 | 0.00 | 0.00 | 0.00 | 87 | 1012.9 |
| 20260902123033 | 50 | 226 | 1.7 | 3.5 | 0.00 | 0.00 | 0.00 | 87 | 1012.9 |
| 20260902121531 | 50 | 228 | 0.9 | 3.5 | 0.00 | 0.00 | 0.00 | 87 | 1013.0 |
| 20260902114604 | 51 | 232 | 0.9 | 3.5 | 0.00 | 0.00 | 0.00 | 86 | 1013.0 |
| 20260902113122 | 51 | 225 | 0.9 | 2.6 | 0.00 | 0.00 | 0.00 | 86 | 1013.0 |
| 20260902111540 | 51 | 225 | 0.9 | 2.6 | 0.00 | 0.00 | 0.00 | 85 | 1013.1 |
| 20260902110039 | 51 | 225 | 1.7 | 2.6 | 0.00 | 0.00 | 0.00 | 84 | 1013.1 |
| 20260902104539 | 52 | 240 | 0.9 | 3.5 | 0.00 | 0.00 | 0.00 | 83 | 1012.9 |
| 20260902103040 | 53 | 278 | 0.0 | 1.7 | 0.00 | 0.00 | 0.00 | 81 | 1012.9 |
| 20260902101541 | 54 | 274 | 0.0 | 1.7 | 0.00 | 0.00 | 0.00 | 81 | 1013.0 |
| 20260902100040 | 54 | 316 | 0.0 | 1.7 | 0.00 | 0.00 | 0.00 | 81 | 1012.9 |
| 20260902094540 | 54 | 298 | 0.0 | 1.7 | 0.00 | 0.00 | 0.00 | 80 | 1013.0 |
| 20260902093038 | 55 | 279 | 0.0 | 1.7 | 0.00 | 0.00 | 0.00 | 78 | 1013.1 |
| 20260902091541 | 56 | 28 | 0.0 | 1.7 | 0.00 | 0.00 | 0.00 | 77 | 1013.0 |
| 20260902090044 | 56 | 25 | 0.0 | 3.5 | 0.00 | 0.00 | 0.00 | 77 | 1013.0 |
| 20260902084540 | 57 | 23 | 0.0 | 3.5 | 0.00 | 0.00 | 0.00 | 77 | 1013.1 |
| 20260902083039 | 57 | 35 | 0.0 | 3.5 | 0.00 | 0.00 | 0.00 | 77 | 1012.9 |
| 20260902081538 | 57 | 36 | 0.9 | 3.5 | 0.00 | 0.00 | 0.00 | 75 | 1013.0 |
| 20260902080039 | 57 | 32 | 0.0 | 3.5 | 0.00 | 0.00 | 0.00 | 74 | 1013.0 |
| 20260902074540 | 58 | 37 | 0.0 | 3.5 | 0.00 | 0.00 | 0.00 | 73 | 1013.1 |
| 20260902073040 | 58 | 44 | 0.9 | 4.3 | 0.00 | 0.00 | 0.00 | 73 | 1013.3 |
| 20260902071540 | 58 | 35 | 0.9 | 5.2 | 0.00 | 0.00 | 0.00 | 73 | 1013.2 |
| 20260902070038 | 59 | 43 | 0.0 | 3.5 | 0.00 | 0.00 | 0.00 | 72 | 1013.4 |
| 20260902064542 | 59 | 41 | 0.0 | 3.5 | 0.00 | 0.00 | 0.00 | 70 | 1013.5 |
| 20260902063039 | 59 | 42 | 0.9 | 6.1 | 0.00 | 0.00 | 0.00 | 70 | 1013.2 |
| 20260902061542 | 59 | 34 | 0.9 | 6.1 | 0.00 | 0.00 | 0.00 | 69 | 1013.3 |